HIMAWARI-9

Last updated on Tue Sep 16 2025 00:02:22 GMT+0000 (Coordinated Universal Time)

1 41836U 16064A 25258.48824493 .00000000 00000+0 00000+0 0 9991 2 41836 0.0232 153.6653 0003875 89.7715 67.7752 1.00265953 32459
UTC large
Height (km)
Speed (km/s)
/
Latitude / Longitude
Inclination (degrees)
Orbital Period (minutes)
Azimuth
Elevation
Range (km)
Doppler Factor

Next 0 passes for location: London (51.5072 / 0.1276)

Sorry there are no passes over London.